Regional Weather Roundup
Issued by NWS

Home | Current Version | Previous Version | Text Only | Print | Product List | Glossary On
Versions: 1 2 3 4 5 6 7 8 9 10 11 12 13 14 15 16 17 18 19 20 21 22 23 24 25 26 27 28 29 30 31 32 33 34 35 36 37 38 39 40 41 42 43 44 45 46 47 48 49 50
000
ASUS43 KLMK 051010
RWRKY
KENTUCKY REGIONAL WEATHER ROUNDUP
NATIONAL WEATHER SERVICE LOUISVILLE KY
500 AM EST THU MAR 05 2015

NOTE "FAIR" INDICATES FEW OR NO CLOUDS BELOW 12,000 FEET
WITH NO SIGNIFICANT WEATHER AND/OR OBSTRUCTIONS TO VISIBILITY.

KYZ001>023-026-027-061>063-070>075-051100-
WESTERN AND SOUTH CENTRAL KENTUCKY

CITY           SKY/WX    TMP DP  RH WIND       PRES   REMARKS
PADUCAH        CLOUDY    20   8  60 N15       30.33R WCI   6
HENDERSON      CLOUDY    19   7  58 N12G20    30.31F WCI   7
OWENSBORO      LGT SNOW  18  15  88 N6        30.32R FOG     WCI  10
HOPKINSVILLE   LGT SNOW  18  14  86 N14G22    30.25F FOG     WCI   4
BOWLING GREEN  SNOW      21  17  84 N8        30.23R VSB 1/2 WCI  11
GLASGOW        LGT SNOW  22  22  98 N9        30.19R VSB 1   WCI  12
$$

KYZ024-025-028>034-038-045-046-053-051100-
NORTH CENTRAL KENTUCKY

CITY           SKY/WX    TMP DP  RH WIND       PRES   REMARKS
LOUISVILLE/SDF LGT SNOW  20  16  84 N16       30.28R VSB 3/4 WCI   6
LOUISVILLE/LOU LGT SNOW  20  16  84 N8        30.28R VSB 1   WCI  10
FORT KNOX      LGT SNOW  18  15  88 N10       30.23S VSB 1   WCI   6
$$

KYZ035>037-039>044-047>052-055>060-089>105-051100-
NORTHEAST KENTUCKY

CITY           SKY/WX    TMP DP  RH WIND       PRES   REMARKS
LEXINGTON      CLOUDY    20  17  88 N12       30.19R FOG     WCI   8
COVINGTON      LGT SNOW  19  10  68 NE12      30.24S FOG     WCI   7
FRANKFORT      LGT SNOW  20  16  84 N13       30.22R VSB 1   WCI   7
$$

KYZ054-064>069-076>088-106>120-051100-
SOUTHEAST KENTUCKY

CITY           SKY/WX    TMP DP  RH WIND       PRES   REMARKS
JACKSON        SNOW      27  24  89 NE6       30.10R VSB 1/2 WCI  20
LONDON         LGT SNOW  28  23  81 N14G24    30.09R WCI  17
SOMERSET       LGT SNOW  27  25  93 N8        30.15R WCI  18
MIDDLESBORO    LGT SNOW  34  32  93 N6        30.06R WCI  29
MONTICELLO     LGT SNOW  27  25  93 N10       30.15F FOG     WCI  17
$$




USA.gov is the U.S. government's official web portal to all federal, state and local government web resources and services.